User: anonymous   Login
Location: Brno
(49.2000°N, 16.6330°E)
Time: 14:48:22
(UTC+02:00)
Language:

Cosmos 1459 Rocket - Orbit

View from above orbital plane
View from above orbital plane
View from above satellite
View from above satellite

Ground track
Ground track

The orbit data is extracted from the following two-line orbital elements,

1 14059U 83042B   17118.92148766 +.00000105 +00000-0 +87457-4 0  9998
2 14059 082.9694 098.5035 0043779 046.5537 313.9250 13.78586173708703
Epoch (UTC): 28 April 2017 22:06:56
Eccentricity: 0.0043779
inclination: 82.9694°
perigee height: 937 km
apogee height: 1001 km
right ascension of ascending node: 98.5035°
argument of perigee: 46.5537°
revolutions per day: 13.78586173
mean anomaly at epoch: 313.9250°
orbit number at epoch: 70870

The dashed part of the orbit path shows where the satellite is in the earth's shadow,  

DLR